Weather History for PAVL - March, 2013

Change the Weather History Date:

Monday, March 11, 2013

  Actual Average Record
Temperature  
Mean Temperature -14 °F -  
Max Temperature -5 °F - - ()
Min Temperature -22 °F - - ()
Degree Days  
Heating Degree Days 78    
Moisture  
Dew Point -19 °F    
Average Humidity 81    
Maximum Humidity 86    
Minimum Humidity 76    
Precipitation  
Precipitation 0.00 in - - ()
Sea Level Pressure  
Sea Level Pressure 30.73 in    
Wind  
Wind Speed 4 mph (NE)    
Max Wind Speed 8 mph    
Max Gust Speed -    
Visibility 9 miles    
Events      
T = Trace of Precipitation, MM = Missing Value Source: NWS Daily Summary

Daily Weather History Graph

Daily Weather History Graph

Search for Another Location

Airport or City:

Trip Planner

Search our weather history database for the weather conditions in past years. The results will help you decide how hot, cold, wet, or windy it might be!

Date:

Astronomy

Mar. 11, 2013 Rise Set
Actual Time 9:33 AM AKDT 8:44 PM AKDT
Civil Twilight 8:38 AM AKDT 9:39 PM AKDT
Nautical Twilight 7:33 AM AKDT 10:45 PM AKDT
Astronomical Twilight 6:20 AM AKDT 11:59 PM AKDT
Moon 8:56 AM AKDT (3/11) 9:42 PM AKDT (3/11)
Length of Visible Light 13h 01m
Length of Day
11h 11m
New Moon, 0% of the Moon is Illuminated
Mar 11
New Moon
Mar 19
First Quarter
Mar 27
Full
Apr 2
Last Quarter
Apr 10
New

Hourly Weather History & Observations

Time (AKDT) Temp. Windchill Dew Point Humidity Pressure Visibility Wind Dir Wind Speed Gust Speed Precip Events Conditions
12:53 AM -14.1 °F -29.9 °F -18.0 °F 82% 30.62 in 9.0 mi NNW 6.9 mph - N/A   Clear
1:53 AM -15.0 °F -25.0 °F -20.0 °F 78% 30.65 in 9.0 mi NE 3.5 mph - N/A   Clear
2:53 AM -15.0 °F - -18.0 °F 86% 30.66 in 9.0 mi Calm Calm - N/A   Clear
3:53 AM -18.9 °F -35.8 °F -23.1 °F 81% 30.67 in 9.0 mi East 6.9 mph - N/A   Clear
4:53 AM -20.0 °F -30.7 °F -24.0 °F 82% 30.70 in 9.0 mi East 3.5 mph - N/A   Clear
5:53 AM -20.0 °F -35.3 °F -23.1 °F 86% 30.71 in 9.0 mi NNE 5.8 mph - N/A   Clear
6:53 AM -20.0 °F -33.3 °F -24.0 °F 82% 30.72 in 9.0 mi NNE 4.6 mph - N/A   Clear
7:53 AM -22.0 °F -35.6 °F -27.0 °F 77% 30.72 in 9.0 mi East 4.6 mph - N/A   Clear
8:53 AM -20.9 °F - -26.0 °F 77% 30.73 in 9.0 mi Calm Calm - N/A   Clear
9:53 AM -18.9 °F -32.0 °F -24.0 °F 78% 30.74 in 8.0 mi ENE 4.6 mph - N/A   Clear
10:53 AM -20.0 °F -35.3 °F -23.1 °F 86% 30.74 in 8.0 mi NE 5.8 mph - N/A   Clear
11:53 AM -17.0 °F - -20.0 °F 86% 30.77 in 6.0 mi Calm Calm - N/A   Clear
12:53 PM -15.0 °F -27.4 °F -18.9 °F 82% 30.76 in 8.0 mi NE 4.6 mph - N/A   Clear
1:53 PM -11.9 °F - -16.1 °F 82% 30.78 in 8.0 mi Calm Calm - 0.00 in   Clear
3:53 PM -8.0 °F -16.9 °F -11.9 °F 83% 30.78 in 8.0 mi ENE 3.5 mph - N/A   Clear
4:53 PM -7.1 °F - -11.0 °F 83% 30.77 in 8.0 mi Calm Calm - N/A   Clear
5:53 PM -5.1 °F -13.6 °F -11.0 °F 76% 30.77 in 8.0 mi ENE 3.5 mph - N/A   Clear
6:53 PM -5.1 °F - -11.0 °F 76% 30.77 in 8.0 mi Calm Calm - N/A   Clear
7:53 PM -9.0 °F -18.2 °F -14.1 °F 79% 30.75 in 8.0 mi ENE 3.5 mph - N/A   Clear
8:53 PM -9.0 °F -18.2 °F -14.1 °F 79% 30.76 in 8.0 mi East 3.5 mph - N/A   Clear
9:53 PM -14.1 °F -29.9 °F -18.0 °F 82% 30.76 in 10.0 mi ENE 6.9 mph - N/A   Clear
10:53 PM -15.0 °F -32.4 °F -18.9 °F 82% 30.75 in 10.0 mi ENE 8.1 mph - N/A   Clear
11:53 PM -15.0 °F -29.3 °F -18.9 °F 82% 30.75 in 10.0 mi ENE 5.8 mph - N/A   Clear